English version Home page |
Updated on May 10, 2003 |
|
軌道要素Epoch 2003 Feb. 10.0 TT = JDT 2452680.5 T 2003 Jan. 29.00234 TT MPC q 0.1899612 (2000.0) P Q z -0.0002551 Peri. 187.57588 +0.47319283 -0.12676988 +/-0.0000168 Node 119.06330 -0.74690459 +0.46701616 e 1.0000485 Incl. 94.15147 -0.46714246 -0.87511445 >From 390 observations 2002 Dec. 14-2003 Mar. 3, mean residual 0".68. Non- gravitational parameters A1 = +1.03 +/- 0.40, A2 = +0.7284 +/- 0.0201.
|
星図
|
光度変化m1 = 7.0 + 5 logΔ + 4.5 log r [ , 0] ( 〜2003年 1月29日) m1 = 8.4 + 5 logΔ + 6.5 log r [ 0,36] (2003年 1月29日〜2003年 3月 6日) m1 = 8.3 + 5 logΔ + 15.0 log r [36,61] (2003年 3月 6日〜2003年 3月31日) m1 = -6.6 + 5 logΔ + 95 log r [61, ] (2003年 3月31日〜 )
|
軌道要素はM.P.E.C. 2003-E20に掲載されたものです。
|